When you browse on this site, cookies collect data to enhance your experience and personalize the content and advertising you see.
Visit our Privacy Policy to learn more. By continuing to use the site, you agree to this use of cookies and data.
  • In Hungary
  • List of Countries
  • For 7 days
  • Water Temperature
  • Satellite Maps
  • Weather Map
  • News
  • Weather Widgets
  • user-avatar
    Login

    Hourly Weather Lexington

    Today, 20 February, Wednesday

    Time Temperature Precipitation Wind Pressure Humidity
    00:00 -8°C° 0 mm 2 mps 769 mmHg 62%
    01:00 -8°C° 0 mm 2 mps 769 mmHg 63%
    02:00 -8°C° 0 mm 2 mps 769 mmHg 62%
    03:00 -7°C° 0 mm 1 mps 770 mmHg 62%
    04:00 -7°C° 0 mm 1 mps 770 mmHg 61%
    05:00 -7°C° 0 mm 1 mps 770 mmHg 62%
    06:00 -7°C° 0 mm 1 mps 770 mmHg 62%
    07:00 -9°C° 0 mm 2 mps 770 mmHg 63%
    08:00 -6°C° 0 mm 1 mps 770 mmHg 58%
    09:00 -4°C° 0 mm 1 mps 770 mmHg 54%
    10:00 -3°C° 0 mm 1 mps 770 mmHg 49%
    11:00 -2°C° 0 mm 1 mps 769 mmHg 47%
    12:00 -1°C° 0 mm 1 mps 769 mmHg 44%
    13:00 -1°C° 0 mm 1 mps 768 mmHg 42%
    14:00 -3°C° 0 mm 2 mps 768 mmHg 43%
    15:00 -2°C° 0 mm 2 mps 767 mmHg 44%
    16:00 -2°C° 0 mm 2 mps 767 mmHg 45%
    17:00 -3°C° 0 mm 2 mps 766 mmHg 48%
    18:00 -3°C° 0 mm 2 mps 766 mmHg 51%
    19:00 -4°C° 0 mm 2 mps 765 mmHg 54%
    20:00 -4°C° 0.2 mm 2 mps 764 mmHg 63%
    21:00 -4°C° 0.2 mm 2 mps 764 mmHg 71%
    22:00 -4°C° 0.2 mm 2 mps 763 mmHg 79%
    23:00 -4°C° 1.5 mm 2 mps 762 mmHg 85%

    Tomorrow, 21 February, Thursday

    Time Temperature Precipitation Wind Pressure Humidity
    00:00 -4°C° 1.5 mm 2 mps 761 mmHg 91%
    01:00 -4°C° 1.5 mm 2 mps 760 mmHg 96%
    02:00 -3°C° 1 mm 2 mps 758 mmHg 96%
    03:00 -2°C° 1 mm 2 mps 757 mmHg 96%
    04:00 -1°C° 1 mm 2 mps 755 mmHg 95%
    05:00 -1°C° 0.6 mm 2 mps 754 mmHg 96%
    06:00 +1°C° 0.6 mm 1 mps 753 mmHg 97%
    07:00 +1°C° 0.6 mm 1 mps 752 mmHg 98%
    08:00 +2°C° 0 mm 1 mps 752 mmHg 98%
    09:00 +3°C° 0 mm 1 mps 751 mmHg 98%
    10:00 +4°C° 0 mm 1 mps 750 mmHg 98%
    11:00 +5°C° 0 mm 2 mps 750 mmHg 93%
    12:00 +5°C° 0 mm 3 mps 750 mmHg 88%
    13:00 +7°C° 0 mm 4 mps 750 mmHg 83%
    14:00 +6°C° 0 mm 4 mps 750 mmHg 79%
    15:00 +5°C° 0 mm 4 mps 750 mmHg 75%
    16:00 +4°C° 0 mm 4 mps 751 mmHg 71%
    17:00 +1°C° 0 mm 4 mps 752 mmHg 73%
    18:00 0°C° 0 mm 4 mps 753 mmHg 76%
    19:00 0°C° 0 mm 3 mps 754 mmHg 78%
    20:00 -1°C° 0 mm 3 mps 754 mmHg 78%
    21:00 -1°C° 0 mm 3 mps 755 mmHg 77%
    22:00 -1°C° 0 mm 3 mps 755 mmHg 76%
    23:00 -1°C° 0 mm 3 mps 755 mmHg 75%

    Day after tomorrow, 22 February, Friday

    Time Temperature Precipitation Wind Pressure Humidity
    00:00 -2°C° 0 mm 4 mps 756 mmHg 74%
    01:00 -2°C° 0 mm 4 mps 756 mmHg 73%
    02:00 -2°C° 0 mm 4 mps 757 mmHg 73%
    03:00 -2°C° 0 mm 4 mps 757 mmHg 73%
    04:00 -2°C° 0 mm 4 mps 758 mmHg 73%
    05:00 -2°C° 0 mm 3 mps 759 mmHg 74%
    06:00 -2°C° 0 mm 3 mps 759 mmHg 76%
    07:00 -2°C° 0 mm 2 mps 760 mmHg 77%
    08:00 -1°C° 0 mm 3 mps 761 mmHg 72%
    09:00 -1°C° 0 mm 4 mps 761 mmHg 67%
    10:00 0°C° 0 mm 4 mps 762 mmHg 61%
    11:00 +1°C° 0 mm 4 mps 762 mmHg 60%
    12:00 +3°C° 0 mm 4 mps 762 mmHg 58%
    13:00 +3°C° 0 mm 4 mps 763 mmHg 57%
    14:00 +3°C° 0 mm 3 mps 763 mmHg 59%
    15:00 +3°C° 0 mm 3 mps 763 mmHg 61%
    16:00 +4°C° 0 mm 2 mps 763 mmHg 63%
    17:00 +2°C° 0 mm 2 mps 764 mmHg 69%
    18:00 +1°C° 0 mm 2 mps 764 mmHg 74%
    19:00 +1°C° 0 mm 1 mps 765 mmHg 80%
    20:00 +1°C° 0 mm 1 mps 766 mmHg 80%
    21:00 0°C° 0 mm 1 mps 766 mmHg 81%
    22:00 0°C° 0 mm 1 mps 767 mmHg 81%
    23:00 -2°C° 0 mm 2 mps 767 mmHg 79%

    23 February, Saturday

    Time Temperature Precipitation Wind Pressure Humidity
    00:00 -2°C° 0 mm 2 mps 767 mmHg 77%
    01:00 -2°C° 0 mm 2 mps 767 mmHg 75%
    02:00 -3°C° 0 mm 2 mps 767 mmHg 75%
    03:00 -3°C° 0 mm 2 mps 767 mmHg 74%
    04:00 -1°C° 0 mm 1 mps 767 mmHg 73%
    05:00 -1°C° 0 mm 1 mps 767 mmHg 73%
    06:00 -1°C° 0 mm 1 mps 767 mmHg 73%
    07:00 -2°C° 0 mm 0 mps 767 mmHg 73%
    08:00 -1°C° 0 mm 0 mps 767 mmHg 67%
    09:00 +1°C° 0 mm 0 mps 767 mmHg 62%
    10:00 +2°C° 0 mm 0 mps 767 mmHg 57%
    11:00 +4°C° 0 mm 1 mps 767 mmHg 55%
    12:00 +4°C° 0 mm 1 mps 766 mmHg 54%
    13:00 +5°C° 0 mm 1 mps 765 mmHg 53%
    14:00 +5°C° 0 mm 1 mps 765 mmHg 57%
    15:00 +4°C° 0 mm 2 mps 764 mmHg 61%
    16:00 +4°C° 0 mm 2 mps 764 mmHg 65%
    17:00 +3°C° 0 mm 2 mps 764 mmHg 71%
    18:00 +2°C° 0 mm 2 mps 763 mmHg 77%
    19:00 +1°C° 0 mm 2 mps 763 mmHg 83%
    20:00 +1°C° 0 mm 2 mps 762 mmHg 85%
    21:00 +1°C° 0 mm 2 mps 762 mmHg 87%
    22:00 +1°C° 0 mm 2 mps 761 mmHg 89%
    23:00 +1°C° 0 mm 2 mps 760 mmHg 90%

    24 February, Sunday

    Time Temperature Precipitation Wind Pressure Humidity
    00:00 +1°C° 0 mm 2 mps 759 mmHg 91%
    01:00 +1°C° 0 mm 2 mps 758 mmHg 92%
    02:00 +2°C° 0.9 mm 2 mps 757 mmHg 94%
    03:00 +2°C° 0.9 mm 2 mps 756 mmHg 95%
    04:00 +2°C° 0.9 mm 2 mps 755 mmHg 97%
    05:00 +2°C° 2 mm 3 mps 753 mmHg 97%
    06:00 +2°C° 2 mm 3 mps 752 mmHg 97%
    07:00 +3°C° 2 mm 3 mps 750 mmHg 98%
    08:00 +4°C° 1 mm 4 mps 749 mmHg 97%
    09:00 +5°C° 1 mm 4 mps 747 mmHg 97%
    10:00 +6°C° 1 mm 5 mps 746 mmHg 96%
    11:00 +6°C° 1 mm 4 mps 744 mmHg 96%
    12:00 +7°C° 1 mm 3 mps 742 mmHg 97%
    13:00 +7°C° 1 mm 3 mps 740 mmHg 98%
    14:00 +9°C° 0.1 mm 3 mps 738 mmHg 97%
    15:00 +10°C° 0.1 mm 3 mps 737 mmHg 96%
    16:00 +11°C° 0.1 mm 4 mps 736 mmHg 95%
    17:00 +9°C° 0.1 mm 5 mps 736 mmHg 85%
    18:00 +8°C° 0.1 mm 6 mps 737 mmHg 75%
    19:00 +5°C° 0.1 mm 7 mps 737 mmHg 65%
    20:00 +5°C° 0 mm 7 mps 737 mmHg 66%
    21:00 +4°C° 0 mm 7 mps 737 mmHg 66%
    22:00 +4°C° 0 mm 7 mps 737 mmHg 66%
    23:00 +3°C° 0 mm 7 mps 737 mmHg 66%

    25 February, Monday

    Time Temperature Precipitation Wind Pressure Humidity
    00:00 +2°C° 0 mm 7 mps 737 mmHg 65%
    01:00 +2°C° 0 mm 7 mps 736 mmHg 64%
    02:00 0°C° 0 mm 7 mps 737 mmHg 63%
    03:00 0°C° 0 mm 7 mps 737 mmHg 62%
    04:00 -1°C° 0 mm 7 mps 737 mmHg 60%
    05:00 -1°C° 0 mm 8 mps 738 mmHg 58%
    06:00 -2°C° 0 mm 8 mps 738 mmHg 56%
    07:00 -4°C° 0 mm 8 mps 739 mmHg 54%
    08:00 -4°C° 0 mm 9 mps 740 mmHg 51%
    09:00 -3°C° 0 mm 9 mps 741 mmHg 48%
    10:00 -3°C° 0 mm 10 mps 742 mmHg 45%
    11:00 -3°C° 0 mm 10 mps 743 mmHg 43%
    12:00 -3°C° 0 mm 10 mps 744 mmHg 41%
    13:00 -3°C° 0 mm 10 mps 745 mmHg 39%
    14:00 -4°C° 0 mm 9 mps 746 mmHg 39%
    15:00 -5°C° 0 mm 9 mps 747 mmHg 39%
    16:00 -5°C° 0 mm 9 mps 749 mmHg 39%
    17:00 -6°C° 0 mm 9 mps 750 mmHg 40%
    18:00 -9°C° 0 mm 9 mps 752 mmHg 42%
    19:00 -10°C° 0 mm 9 mps 753 mmHg 43%
    20:00 -10°C° 0 mm 9 mps 754 mmHg 38%
    21:00 -11°C° 0 mm 9 mps 755 mmHg 34%
    22:00 -12°C° 0 mm 9 mps 756 mmHg 29%
    23:00 -13°C° 0 mm 8 mps 757 mmHg 29%
    Show more